Torna al catalogo

STARLINK-35813

AttivoComunicazioniVLEO
NORAD 66361·PAYLOAD·🇺🇸 United States

Lanciato Nov 6, 2025 da Vandenberg Space Force Base

Loading…

Prossimi Passaggi (prossime 24 ore)

TLE

AggiornatoSource: CelesTrak SupGP

Epoca: Sep 14, 2026, 23:01 UTC

1 66361C 25254P   26257.95951389  .00046232  00000+0  14870-2 0  2576
2 66361  53.1587  71.6872 0001264  80.8677  27.3626 15.31673769    18

Traccia STARLINK-35813 in tempo reale con AllMySat

Download on the App Store